WB5MTX Weather Reports


Display with metric or nautical units.
time (UTC)temp
F
wind
direction
speed
MPH
gust
MPH
rain 1hr
in
rain 24hr
in
rain mn
in
humidity
%
barometer
mb
20260901220112 100 103 2.0 9.0 0.00 0.00 0.00 35 1013.3
20260901214602 100 0 1.0 9.0 0.00 0.00 0.00 36 1013.4
20260901213109 100 0 0.0 8.0 0.00 0.00 0.00 36 1013.3
20260901211610 100 0 0.0 6.0 0.00 0.00 0.00 36 1013.6
20260901204601 98 112 2.0 10.0 0.00 0.00 0.00 38 1014.0
20260901203106 100 0 2.0 8.0 0.00 0.00 0.00 36 1014.1
20260901201601 100 123 2.0 10.0 0.00 0.00 0.00 37 1014.3
20260901200109 99 0 0.0 7.0 0.00 0.00 0.00 38 1014.4
20260901194605 98 0 2.0 12.0 0.00 0.00 0.00 38 1014.5
20260901193111 98 105 2.0 13.0 0.00 0.00 0.00 37 1014.7
20260901191612 99 115 0.0 10.0 0.00 0.00 0.00 38 1015.0
20260901190116 98 159 0.0 7.0 0.00 0.00 0.00 40 1015.3
20260901184612 98 86 2.0 8.0 0.00 0.00 0.00 39 1015.5
20260901183107 98 113 0.0 9.0 0.00 0.00 0.00 39 1015.7
20260901181613 97 154 0.0 7.0 0.00 0.00 0.00 42 1016.0
20260901180105 97 107 2.0 9.0 0.00 0.00 0.00 41 1016.1
20260901174607 96 0 1.0 10.0 0.00 0.00 0.00 44 1016.3
20260901173103 96 0 0.0 7.0 0.00 0.00 0.00 44 1016.5
20260901171609 95 161 0.0 8.0 0.00 0.00 0.00 47 1016.7
20260901170200 94 0 0.0 7.0 0.00 0.00 0.00 46 1016.9
20260901164604 94 0 0.0 4.0 0.00 0.00 0.00 46 1017.2
20260901163110 93 0 1.0 6.0 0.00 0.00 0.00 49 1017.1
20260901161614 93 0 0.0 7.0 0.00 0.00 0.00 47 1017.3
20260901160056 92 0 0.0 7.0 0.00 0.00 0.00 49 1017.1
20260901154613 92 0 0.0 4.0 0.00 0.00 0.00 51 1017.3
20260901153125 91 0 1.0 7.0 0.00 0.00 0.00 54 1017.2
20260901151602 89 0 0.0 6.0 0.00 0.00 0.00 55 1017.2
20260901150104 88 0 0.0 5.0 0.00 0.00 0.00 58 1017.3
20260901144600 87 0 0.0 4.0 0.00 0.00 0.00 61 1017.3
20260901143059 85 0 0.0 4.0 0.00 0.00 0.00 62 1017.3
20260901141603 84 0 0.0 2.0 0.00 0.00 0.00 64 1017.4
20260901134601 82 0 0.0 3.0 0.00 0.00 0.00 69 1017.4
20260901133057 80 0 0.0 4.0 0.00 0.00 0.00 71 1017.3
20260901131625 78 0 0.0 2.0 0.00 0.00 0.00 74 1017.2
20260901130104 77 0 0.0 0.0 0.00 0.00 0.00 75 1017.0
20260901124602 76 0 0.0 0.0 0.00 0.00 0.00 74 1016.9
20260901123058 76 0 0.0 0.0 0.00 0.00 0.00 74 1016.7
20260901121600 76 0 0.0 0.0 0.00 0.00 0.00 73 1016.5
20260901114600 76 0 0.0 0.0 0.00 0.00 0.00 72 1016.3
20260901113106 77 0 0.0 0.0 0.00 0.00 0.00 72 1016.2
20260901111609 77 0 0.0 0.0 0.00 0.00 0.00 71 1016.2
20260901110118 77 0 0.0 0.0 0.00 0.00 0.00 70 1016.1
20260901104605 78 0 0.0 0.0 0.00 0.00 0.00 69 1016.1
20260901103104 78 0 0.0 0.0 0.00 0.00 0.00 68 1016.0
20260901101608 79 0 0.0 0.0 0.00 0.00 0.00 67 1016.0
20260901100112 79 0 0.0 3.0 0.00 0.00 0.00 67 1015.9
20260901094603 80 0 0.0 5.0 0.00 0.00 0.00 66 1016.0
20260901093105 80 0 0.0 4.0 0.00 0.00 0.00 65 1016.1
20260901091559 80 0 0.0 5.0 0.00 0.00 0.00 65 1016.3
20260901084613 80 0 0.0 2.0 0.00 0.00 0.00 62 1016.1
20260901083103 80 189 0.0 5.0 0.00 0.00 0.00 61 1016.0
20260901081615 80 0 0.0 5.0 0.00 0.00 0.00 61 1016.1
20260901080101 80 0 0.0 3.0 0.00 0.00 0.00 61 1015.9
20260901074559 80 0 0.0 0.0 0.00 0.00 0.00 60 1015.9
20260901073104 81 0 0.0 0.0 0.00 0.00 0.00 59 1015.8
20260901071603 81 0 0.0 0.0 0.00 0.00 0.00 57 1015.7
20260901070059 81 0 0.0 0.0 0.00 0.00 0.00 56 1015.5
20260901064559 81 0 0.0 0.0 0.00 0.00 0.00 57 1015.5
20260901063103 81 0 0.0 0.0 0.00 0.00 0.00 55 1015.5
20260901061614 81 0 0.0 3.0 0.00 0.00 0.00 54 1015.4
20260901060106 81 0 0.0 0.0 0.00 0.00 0.00 54 1015.1
20260901054614 82 0 0.0 0.0 0.00 0.00 0.00 53 1015.0
20260901053124 82 0 0.0 0.0 0.00 0.00 0.00 54 1014.8
20260901051605 82 0 0.0 0.0 0.00 0.00 0.00 54 1014.7
20260901050105 83 0 0.0 0.0 0.00 0.00 0.00 54 1014.6
20260901044559 83 0 0.0 0.0 0.00 0.00 0.00 54 1014.6
20260901043103 84 0 0.0 0.0 0.00 0.00 0.00 53 1014.6
20260901041608 84 0 0.0 0.0 0.00 0.00 0.00 51 1014.7
20260901040131 84 0 0.0 0.0 0.00 0.00 0.00 50 1014.7
20260901034601 85 0 0.0 0.0 0.00 0.00 0.00 49 1014.8
20260901033110 86 0 0.0 0.0 0.00 0.00 0.00 48 1014.6
20260901031611 86 0 0.0 0.0 0.00 0.00 0.00 47 1014.6
20260901030105 87 0 0.0 0.0 0.00 0.00 0.00 48 1014.4
20260901024605 88 0 0.0 0.0 0.00 0.00 0.00 47 1014.3
20260901023106 89 0 0.0 0.0 0.00 0.00 0.00 47 1014.1
20260901021605 90 0 0.0 0.0 0.00 0.00 0.00 45 1014.0
20260901014605 91 0 0.0 0.0 0.00 0.00 0.00 39 1013.6
20260901013107 92 0 0.0 3.0 0.00 0.00 0.00 39 1013.5
20260901011608 93 115 0.0 4.0 0.00 0.00 0.00 38 1013.4
20260901010105 93 0 0.0 8.0 0.00 0.00 0.00 38 1013.3
20260901004606 94 97 0.0 9.0 0.00 0.00 0.00 37 1013.4
20260901003106 94 0 0.0 5.0 0.00 0.00 0.00 38 1013.3
20260901001606 95 0 0.0 3.0 0.00 0.00 0.00 36 1013.3
20260901000107 96 0 0.0 3.0 0.00 0.00 0.00 36 1013.3
20260831234606 96 0 1.0 7.0 0.00 0.00 0.00 34 1013.4
20260831233101 98 109 1.0 8.0 0.00 0.00 0.00 34 1013.3
20260831231606 99 0 1.0 7.0 0.00 0.00 0.00 31 1013.3
20260831230141 100 104 0.0 9.0 0.00 0.00 0.00 31 1013.3
20260831224614 99 0 1.0 9.0 0.00 0.00 0.00 30 1013.3
20260831223111 99 105 0.0 8.0 0.00 0.00 0.00 30 1013.4
20260831221627 100 126 2.0 9.0 0.00 0.00 0.00 31 1013.4